Time,TemperatureF,DewpointF,PressureIn,WindDirection,WindDirectionDegrees,WindSpeedMPH,WindSpeedGustMPH,Humidity,HourlyPrecipIn,Conditions,Clouds,dailyrainin,SoftwareType,DateUTC
2013-05-20 00:01:00,48.8,46.2,29.96,SE,146,0.0,0.0,91,0.00,,,0.00,Weather View 32 v70,2013-05-20 07:01:00,
2013-05-20 00:06:00,49.0,46.5,29.95,SE,146,0.0,0.0,91,0.00,,,0.00,Weather View 32 v70,2013-05-20 07:06:00,
2013-05-20 00:11:00,48.9,46.4,29.96,SE,146,0.0,0.0,91,0.00,,,0.00,Weather View 32 v70,2013-05-20 07:11:00,
2013-05-20 00:16:00,48.8,46.4,29.96,SE,146,0.0,0.0,92,0.00,,,0.00,Weather View 32 v70,2013-05-20 07:16:00,
2013-05-20 00:21:00,48.8,46.4,29.95,SE,146,0.0,0.0,91,0.00,,,0.00,Weather View 32 v70,2013-05-20 07:21:00,
2013-05-20 00:26:00,48.6,46.1,29.96,SE,146,0.0,0.0,91,0.00,,,0.00,Weather View 32 v70,2013-05-20 07:26:00,
2013-05-20 00:31:00,48.6,46.1,29.96,SE,146,0.0,0.0,91,0.00,,,0.00,Weather View 32 v70,2013-05-20 07:31:00,
2013-05-20 00:36:00,48.3,45.8,29.95,SE,146,0.0,0.0,91,0.00,,,0.00,Weather View 32 v70,2013-05-20 07:36:00,
2013-05-20 00:41:00,48.1,45.7,29.96,SE,146,0.0,0.0,91,0.00,,,0.00,Weather View 32 v70,2013-05-20 07:41:00,
2013-05-20 00:46:00,48.0,45.7,29.96,SE,146,0.0,0.0,92,0.00,,,0.00,Weather View 32 v70,2013-05-20 07:46:00,
2013-05-20 00:51:00,47.5,45.2,29.95,SE,146,0.0,0.0,92,0.00,,,0.00,Weather View 32 v70,2013-05-20 07:51:00,
2013-05-20 00:56:00,47.5,45.3,29.96,SE,146,0.0,0.0,92,0.00,,,0.00,Weather View 32 v70,2013-05-20 07:56:00,
2013-05-20 01:01:00,47.4,45.3,29.96,SE,146,0.0,0.0,93,0.00,,,0.00,Weather View 32 v70,2013-05-20 08:01:00,
2013-05-20 01:06:00,47.3,45.3,29.96,SE,146,0.0,0.0,93,0.00,,,0.00,Weather View 32 v70,2013-05-20 08:06:00,
2013-05-20 01:11:00,47.3,45.4,29.96,SE,146,0.0,0.0,93,0.00,,,0.00,Weather View 32 v70,2013-05-20 08:11:00,
2013-05-20 01:16:00,47.2,45.4,29.96,SE,146,0.0,0.0,94,0.00,,,0.00,Weather View 32 v70,2013-05-20 08:16:00,
2013-05-20 01:21:00,47.5,45.7,29.96,SE,146,0.0,0.0,94,0.00,,,0.00,Weather View 32 v70,2013-05-20 08:21:00,
2013-05-20 01:26:00,47.4,45.6,29.96,SE,146,0.0,0.0,94,0.00,,,0.00,Weather View 32 v70,2013-05-20 08:26:00,
2013-05-20 01:31:00,47.1,45.3,29.96,SE,146,0.0,0.0,94,0.00,,,0.00,Weather View 32 v70,2013-05-20 08:31:00,
2013-05-20 01:36:00,47.2,45.4,29.97,SE,146,0.0,0.0,94,0.00,,,0.00,Weather View 32 v70,2013-05-20 08:36:00,
2013-05-20 01:41:00,47.2,45.4,29.96,SE,146,0.0,0.0,94,0.00,,,0.00,Weather View 32 v70,2013-05-20 08:41:00,
2013-05-20 01:46:00,47.1,45.3,29.97,SE,146,0.0,0.0,94,0.00,,,0.00,Weather View 32 v70,2013-05-20 08:46:00,
2013-05-20 01:51:00,47.2,45.5,29.97,SE,146,0.0,0.0,94,0.00,,,0.00,Weather View 32 v70,2013-05-20 08:51:00,
2013-05-20 01:56:00,47.4,45.7,29.97,SE,146,0.0,0.0,94,0.00,,,0.00,Weather View 32 v70,2013-05-20 08:56:00,
2013-05-20 02:01:00,47.4,45.7,29.96,SE,146,0.0,0.0,94,0.00,,,0.00,Weather View 32 v70,2013-05-20 09:01:00,
2013-05-20 02:06:00,47.6,45.9,29.95,SE,146,0.0,0.0,94,0.00,,,0.00,Weather View 32 v70,2013-05-20 09:06:00,
2013-05-20 02:11:00,47.3,45.6,29.95,SE,146,0.0,0.0,94,0.00,,,0.00,Weather View 32 v70,2013-05-20 09:11:00,
2013-05-20 02:16:00,47.5,45.7,29.95,SE,146,0.0,0.0,94,0.00,,,0.00,Weather View 32 v70,2013-05-20 09:16:00,
2013-05-20 02:21:00,47.6,45.8,29.95,SE,146,0.0,0.0,93,0.00,,,0.00,Weather View 32 v70,2013-05-20 09:21:00,
2013-05-20 02:26:00,47.4,45.6,29.96,SE,146,0.0,0.0,93,0.00,,,0.00,Weather View 32 v70,2013-05-20 09:26:00,
2013-05-20 02:31:00,47.4,45.5,29.95,SE,146,0.0,0.0,93,0.00,,,0.00,Weather View 32 v70,2013-05-20 09:31:00,
2013-05-20 02:37:00,47.5,45.6,29.95,SE,146,0.0,0.0,93,0.00,,,0.00,Weather View 32 v70,2013-05-20 09:37:00,
2013-05-20 02:42:00,47.4,45.4,29.95,SE,146,0.0,0.0,93,0.00,,,0.00,Weather View 32 v70,2013-05-20 09:42:00,
2013-05-20 02:47:00,47.2,45.2,29.95,SE,146,0.0,0.0,93,0.00,,,0.00,Weather View 32 v70,2013-05-20 09:47:00,
2013-05-20 02:52:00,47.0,44.9,29.95,SE,146,0.0,0.0,93,0.00,,,0.00,Weather View 32 v70,2013-05-20 09:52:00,
2013-05-20 02:57:00,46.7,44.6,29.95,SE,146,0.0,0.0,92,0.00,,,0.00,Weather View 32 v70,2013-05-20 09:57:00,
2013-05-20 03:02:00,46.8,44.7,29.95,SE,146,0.0,0.0,92,0.00,,,0.00,Weather View 32 v70,2013-05-20 10:02:00,
2013-05-20 03:07:00,46.3,44.2,29.95,SE,146,0.0,0.0,92,0.00,,,0.00,Weather View 32 v70,2013-05-20 10:07:00,
2013-05-20 03:12:00,46.3,44.3,29.95,SE,146,0.0,0.0,93,0.00,,,0.00,Weather View 32 v70,2013-05-20 10:12:00,
2013-05-20 03:17:00,46.1,44.2,29.95,SE,146,0.0,0.0,93,0.00,,,0.00,Weather View 32 v70,2013-05-20 10:17:00,
2013-05-20 03:22:00,46.0,44.1,29.96,SE,146,0.0,0.0,93,0.00,,,0.00,Weather View 32 v70,2013-05-20 10:22:00,
2013-05-20 03:27:00,46.0,44.1,29.95,SE,146,0.0,0.0,93,0.00,,,0.00,Weather View 32 v70,2013-05-20 10:27:00,
2013-05-20 03:32:00,46.1,44.2,29.95,SE,146,0.0,0.0,93,0.00,,,0.00,Weather View 32 v70,2013-05-20 10:32:00,
2013-05-20 03:37:00,45.9,44.0,29.95,SE,146,0.0,0.0,93,0.00,,,0.00,Weather View 32 v70,2013-05-20 10:37:00,
2013-05-20 03:42:00,45.8,43.9,29.96,SE,146,0.0,0.0,93,0.00,,,0.00,Weather View 32 v70,2013-05-20 10:42:00,
2013-05-20 03:47:00,45.9,44.0,29.96,SE,146,0.0,0.0,93,0.00,,,0.00,Weather View 32 v70,2013-05-20 10:47:00,
2013-05-20 03:52:00,45.8,43.9,29.95,SE,146,0.0,0.0,93,0.00,,,0.00,Weather View 32 v70,2013-05-20 10:52:00,
2013-05-20 03:57:00,45.8,43.9,29.96,SE,146,0.0,0.0,93,0.00,,,0.00,Weather View 32 v70,2013-05-20 10:57:00,
2013-05-20 04:02:00,45.8,43.9,29.96,SE,146,0.0,0.0,93,0.00,,,0.00,Weather View 32 v70,2013-05-20 11:02:00,
2013-05-20 04:07:00,45.9,44.0,29.96,SE,146,0.0,0.0,93,0.00,,,0.00,Weather View 32 v70,2013-05-20 11:07:00,
2013-05-20 04:12:00,45.9,43.9,29.95,SE,146,0.0,0.0,93,0.00,,,0.00,Weather View 32 v70,2013-05-20 11:12:00,
2013-05-20 04:17:00,46.0,44.1,29.96,SE,146,0.0,0.0,93,0.00,,,0.00,Weather View 32 v70,2013-05-20 11:17:00,
2013-05-20 04:22:00,45.9,44.0,29.96,SE,146,0.0,0.0,93,0.00,,,0.00,Weather View 32 v70,2013-05-20 11:22:00,
2013-05-20 04:27:00,45.9,43.9,29.97,SE,146,0.0,0.0,93,0.00,,,0.00,Weather View 32 v70,2013-05-20 11:27:00,
2013-05-20 04:32:00,45.7,43.7,29.96,SE,146,0.0,0.0,93,0.00,,,0.00,Weather View 32 v70,2013-05-20 11:32:00,
2013-05-20 04:37:00,45.8,43.8,29.96,SE,146,0.0,0.0,93,0.00,,,0.00,Weather View 32 v70,2013-05-20 11:37:00,
2013-05-20 04:42:00,45.7,43.7,29.96,SE,146,0.0,0.0,93,0.00,,,0.00,Weather View 32 v70,2013-05-20 11:42:00,
2013-05-20 04:47:00,45.4,43.4,29.96,SE,146,0.0,0.0,93,0.00,,,0.00,Weather View 32 v70,2013-05-20 11:47:00,
2013-05-20 04:52:00,45.5,43.5,29.96,SE,146,0.0,0.0,93,0.00,,,0.00,Weather View 32 v70,2013-05-20 11:52:00,
2013-05-20 04:57:00,45.3,43.4,29.96,SE,146,0.0,0.0,93,0.00,,,0.00,Weather View 32 v70,2013-05-20 11:57:00,
2013-05-20 05:02:00,45.3,43.4,29.96,SE,146,0.0,0.0,93,0.00,,,0.00,Weather View 32 v70,2013-05-20 12:02:00,
2013-05-20 05:07:00,45.2,43.3,29.96,SE,146,0.0,0.0,93,0.00,,,0.00,Weather View 32 v70,2013-05-20 12:07:00,
2013-05-20 05:12:00,45.3,43.4,29.96,SE,146,0.0,0.0,93,0.00,,,0.00,Weather View 32 v70,2013-05-20 12:12:00,
2013-05-20 05:17:00,45.0,43.1,29.96,SE,146,0.0,0.0,93,0.00,,,0.00,Weather View 32 v70,2013-05-20 12:17:00,
2013-05-20 05:22:00,45.0,43.1,29.95,SE,146,0.0,0.0,93,0.00,,,0.00,Weather View 32 v70,2013-05-20 12:22:00,
2013-05-20 05:27:00,44.9,43.1,29.96,SE,146,0.0,0.0,93,0.00,,,0.00,Weather View 32 v70,2013-05-20 12:27:00,
2013-05-20 05:32:00,44.9,43.1,29.96,SE,146,0.0,0.0,93,0.00,,,0.00,Weather View 32 v70,2013-05-20 12:32:00,
2013-05-20 05:37:00,44.6,42.8,29.95,SE,146,0.0,0.0,93,0.00,,,0.00,Weather View 32 v70,2013-05-20 12:37:00,
2013-05-20 05:42:00,44.7,42.9,29.96,SE,146,0.0,0.0,93,0.00,,,0.00,Weather View 32 v70,2013-05-20 12:42:00,
2013-05-20 05:47:00,44.7,42.9,29.96,SE,146,0.0,0.0,94,0.00,,,0.00,Weather View 32 v70,2013-05-20 12:47:00,
2013-05-20 05:52:00,45.0,43.2,29.96,SE,146,0.0,0.0,94,0.00,,,0.00,Weather View 32 v70,2013-05-20 12:52:00,
2013-05-20 05:57:00,44.7,42.9,29.97,SE,146,0.0,0.0,94,0.00,,,0.00,Weather View 32 v70,2013-05-20 12:57:00,
2013-05-20 06:02:00,44.6,42.8,29.97,SE,146,0.0,0.0,94,0.00,,,0.00,Weather View 32 v70,2013-05-20 13:02:00,
2013-05-20 06:07:00,44.8,43.1,29.97,SE,146,0.0,0.0,94,0.00,,,0.00,Weather View 32 v70,2013-05-20 13:07:00,
2013-05-20 06:12:00,44.8,43.1,29.98,SE,146,0.0,0.0,94,0.00,,,0.00,Weather View 32 v70,2013-05-20 13:12:00,
2013-05-20 06:17:00,44.8,43.1,29.98,SE,146,0.0,0.0,94,0.00,,,0.00,Weather View 32 v70,2013-05-20 13:17:00,
2013-05-20 06:22:00,45.0,43.3,29.98,SE,146,0.0,0.0,94,0.00,,,0.00,Weather View 32 v70,2013-05-20 13:22:00,
2013-05-20 06:27:00,45.0,43.2,29.98,SE,146,0.0,0.0,94,0.00,,,0.00,Weather View 32 v70,2013-05-20 13:27:00,
2013-05-20 06:32:00,45.3,43.6,29.98,SE,146,0.0,0.0,94,0.00,,,0.00,Weather View 32 v70,2013-05-20 13:32:00,
2013-05-20 06:37:00,45.2,43.4,29.98,SE,146,0.0,0.0,94,0.00,,,0.00,Weather View 32 v70,2013-05-20 13:37:00,
2013-05-20 06:42:00,45.4,43.6,29.98,SE,146,0.0,0.0,93,0.00,,,0.00,Weather View 32 v70,2013-05-20 13:42:00,
2013-05-20 06:47:00,45.7,43.9,29.98,SE,146,0.0,0.0,93,0.00,,,0.00,Weather View 32 v70,2013-05-20 13:47:00,
2013-05-20 06:52:00,45.8,44.0,29.98,SE,146,0.0,0.0,93,0.00,,,0.00,Weather View 32 v70,2013-05-20 13:52:00,
2013-05-20 06:57:00,46.1,44.2,29.98,SE,146,0.0,0.0,93,0.00,,,0.00,Weather View 32 v70,2013-05-20 13:57:00,
2013-05-20 07:02:00,46.6,44.7,29.98,SE,146,0.0,0.0,93,0.00,,,0.00,Weather View 32 v70,2013-05-20 14:02:00,
2013-05-20 07:07:00,47.0,45.1,29.99,SE,146,0.0,0.0,93,0.00,,,0.00,Weather View 32 v70,2013-05-20 14:07:00,
2013-05-20 07:12:00,47.8,45.7,29.99,SE,146,0.0,0.0,92,0.00,,,0.00,Weather View 32 v70,2013-05-20 14:12:00,
2013-05-20 07:17:00,49.2,46.6,29.98,SE,146,0.0,0.0,91,0.00,,,0.00,Weather View 32 v70,2013-05-20 14:17:00,
2013-05-20 07:22:00,50.2,46.9,29.98,SE,146,0.0,0.0,88,0.00,,,0.00,Weather View 32 v70,2013-05-20 14:22:00,
2013-05-20 07:27:00,51.4,47.3,29.98,SE,146,0.0,0.0,86,0.00,,,0.00,Weather View 32 v70,2013-05-20 14:27:00,
2013-05-20 07:32:00,52.7,48.0,29.98,SE,146,0.0,0.0,84,0.00,,,0.00,Weather View 32 v70,2013-05-20 14:32:00,
2013-05-20 07:37:00,53.4,47.5,29.98,SE,146,0.0,0.0,80,0.00,,,0.00,Weather View 32 v70,2013-05-20 14:37:00,
2013-05-20 07:42:00,54.3,47.8,29.98,SE,146,0.0,0.0,79,0.00,,,0.00,Weather View 32 v70,2013-05-20 14:42:00,
2013-05-20 07:47:00,54.6,47.7,29.98,SE,146,0.0,0.0,78,0.00,,,0.00,Weather View 32 v70,2013-05-20 14:47:00,
2013-05-20 07:52:00,55.1,48.0,29.98,SE,146,0.0,0.0,77,0.00,,,0.00,Weather View 32 v70,2013-05-20 14:52:00,
2013-05-20 07:57:00,55.8,48.0,29.98,SE,146,0.0,0.0,75,0.00,,,0.00,Weather View 32 v70,2013-05-20 14:57:00,
2013-05-20 08:02:00,56.7,48.2,29.97,SE,146,0.0,0.0,73,0.00,,,0.00,Weather View 32 v70,2013-05-20 15:02:00,
2013-05-20 08:07:00,57.4,47.9,29.97,SE,146,0.0,0.0,71,0.00,,,0.00,Weather View 32 v70,2013-05-20 15:07:00,
2013-05-20 08:12:00,58.2,47.2,29.97,SE,146,0.0,0.0,67,0.00,,,0.00,Weather View 32 v70,2013-05-20 15:12:00,
2013-05-20 08:17:00,59.0,47.5,29.97,SE,146,0.0,0.0,66,0.00,,,0.00,Weather View 32 v70,2013-05-20 15:17:00,
2013-05-20 08:22:00,60.3,48.0,29.97,SE,146,0.0,0.0,64,0.00,,,0.00,Weather View 32 v70,2013-05-20 15:22:00,
2013-05-20 08:27:00,61.3,47.2,29.96,SE,146,0.0,0.0,60,0.00,,,0.00,Weather View 32 v70,2013-05-20 15:27:00,
2013-05-20 08:32:00,62.6,47.1,29.96,SE,146,0.0,0.0,57,0.00,,,0.00,Weather View 32 v70,2013-05-20 15:32:00,
2013-05-20 08:37:00,63.6,46.8,29.95,SE,146,0.0,0.0,54,0.00,,,0.00,Weather View 32 v70,2013-05-20 15:37:00,
2013-05-20 08:42:00,64.4,46.0,29.96,SE,146,0.0,0.0,51,0.00,,,0.00,Weather View 32 v70,2013-05-20 15:42:00,
2013-05-20 08:47:00,65.6,46.1,29.96,SE,146,0.0,0.0,50,0.00,,,0.00,Weather View 32 v70,2013-05-20 15:47:00,
2013-05-20 08:52:00,65.9,45.9,29.95,SE,146,0.0,0.0,49,0.00,,,0.00,Weather View 32 v70,2013-05-20 15:52:00,
2013-05-20 08:57:00,66.9,46.2,29.95,SE,146,0.0,0.0,48,0.00,,,0.00,Weather View 32 v70,2013-05-20 15:57:00,
2013-05-20 09:02:00,67.7,46.4,29.95,SE,146,0.0,0.0,47,0.00,,,0.00,Weather View 32 v70,2013-05-20 16:02:00,
2013-05-20 09:07:00,68.5,46.8,29.95,SE,146,0.0,0.0,46,0.00,,,0.00,Weather View 32 v70,2013-05-20 16:07:00,
2013-05-20 09:12:00,69.2,47.1,29.94,SE,146,0.0,0.0,45,0.00,,,0.00,Weather View 32 v70,2013-05-20 16:12:00,
2013-05-20 09:17:00,69.4,46.7,29.94,SSE,162,0.0,2.0,44,0.00,,,0.00,Weather View 32 v70,2013-05-20 16:17:00,
2013-05-20 09:22:00,70.1,47.4,29.94,SSE,162,0.0,2.0,45,0.00,,,0.00,Weather View 32 v70,2013-05-20 16:22:00,
2013-05-20 09:27:00,70.5,47.3,29.94,SSE,162,0.0,2.0,44,0.00,,,0.00,Weather View 32 v70,2013-05-20 16:27:00,
2013-05-20 09:32:00,71.3,47.8,29.93,SSW,200,0.0,3.0,43,0.00,,,0.00,Weather View 32 v70,2013-05-20 16:32:00,
2013-05-20 09:37:00,71.7,47.1,29.94,SSW,200,0.0,3.0,42,0.00,,,0.00,Weather View 32 v70,2013-05-20 16:37:00,
2013-05-20 09:42:00,72.4,46.4,29.93,SSW,200,0.0,3.0,40,0.00,,,0.00,Weather View 32 v70,2013-05-20 16:42:00,
2013-05-20 09:47:00,72.7,45.3,29.92,SSW,200,0.0,3.0,38,0.00,,,0.00,Weather View 32 v70,2013-05-20 16:47:00,
2013-05-20 09:52:00,73.3,44.1,29.92,South,180,0.0,4.0,35,0.00,,,0.00,Weather View 32 v70,2013-05-20 16:52:00,
2013-05-20 09:57:00,73.8,41.8,29.92,SSE,153,0.0,5.0,32,0.00,,,0.00,Weather View 32 v70,2013-05-20 16:57:00,
2013-05-20 10:02:00,74.1,43.3,29.92,SSE,153,0.0,5.0,33,0.00,,,0.00,Weather View 32 v70,2013-05-20 17:02:00,
2013-05-20 10:07:00,74.6,44.5,29.92,South,174,0.0,6.0,34,0.00,,,0.00,Weather View 32 v70,2013-05-20 17:07:00,
2013-05-20 10:12:00,74.6,45.2,29.91,South,174,0.0,6.0,35,0.00,,,0.00,Weather View 32 v70,2013-05-20 17:12:00,
2013-05-20 10:17:00,74.6,44.9,29.91,South,174,0.0,6.0,35,0.00,,,0.00,Weather View 32 v70,2013-05-20 17:17:00,
2013-05-20 10:22:00,74.8,44.2,29.91,ESE,120,5.0,6.0,34,0.00,,,0.00,Weather View 32 v70,2013-05-20 17:22:00,
2013-05-20 10:27:00,75.4,44.0,29.90,SSW,193,0.0,6.0,33,0.00,,,0.00,Weather View 32 v70,2013-05-20 17:27:00,
2013-05-20 10:32:00,75.3,43.9,29.90,SE,145,0.0,6.0,33,0.00,,,0.00,Weather View 32 v70,2013-05-20 17:32:00,
2013-05-20 10:37:00,76.4,43.9,29.90,East,89,2.0,6.0,32,0.00,,,0.00,Weather View 32 v70,2013-05-20 17:37:00,
2013-05-20 10:42:00,76.4,42.3,29.90,South,177,3.0,8.0,30,0.00,,,0.00,Weather View 32 v70,2013-05-20 17:42:00,
2013-05-20 10:47:00,75.5,39.8,29.90,SSE,167,3.0,8.0,28,0.00,,,0.00,Weather View 32 v70,2013-05-20 17:47:00,
2013-05-20 10:52:00,75.9,41.4,29.90,SSW,203,0.0,8.0,29,0.00,,,0.00,Weather View 32 v70,2013-05-20 17:52:00,
2013-05-20 10:57:00,75.9,42.5,29.90,SW,224,2.0,8.0,30,0.00,,,0.00,Weather View 32 v70,2013-05-20 17:57:00,
2013-05-20 11:02:00,75.7,42.6,29.89,South,184,0.0,8.0,31,0.00,,,0.00,Weather View 32 v70,2013-05-20 18:02:00,
2013-05-20 11:08:00,75.9,41.5,29.90,South,179,0.0,8.0,29,0.00,,,0.00,Weather View 32 v70,2013-05-20 18:08:00,
2013-05-20 11:13:00,75.9,41.7,29.89,South,177,4.0,8.0,30,0.00,,,0.00,Weather View 32 v70,2013-05-20 18:13:00,
2013-05-20 11:18:00,75.8,41.8,29.89,SSE,165,0.0,8.0,30,0.00,,,0.00,Weather View 32 v70,2013-05-20 18:18:00,
2013-05-20 11:23:00,75.7,40.7,29.89,SSW,195,5.0,8.0,29,0.00,,,0.00,Weather View 32 v70,2013-05-20 18:23:00,
2013-05-20 11:28:00,76.3,39.2,29.89,SE,143,0.0,8.0,26,0.00,,,0.00,Weather View 32 v70,2013-05-20 18:28:00,
2013-05-20 11:33:00,76.4,39.3,29.89,SSE,162,5.0,9.0,26,0.00,,,0.00,Weather View 32 v70,2013-05-20 18:33:00,
2013-05-20 11:38:00,76.5,40.7,29.89,South,184,0.0,9.0,28,0.00,,,0.00,Weather View 32 v70,2013-05-20 18:38:00,
2013-05-20 11:43:00,76.9,40.6,29.89,SSE,163,7.0,9.0,27,0.00,,,0.00,Weather View 32 v70,2013-05-20 18:43:00,
2013-05-20 11:48:00,76.9,39.8,29.88,SW,217,0.0,9.0,27,0.00,,,0.00,Weather View 32 v70,2013-05-20 18:48:00,
2013-05-20 11:53:00,77.4,38.1,29.88,ESE,110,3.0,9.0,24,0.00,,,0.00,Weather View 32 v70,2013-05-20 18:53:00,
2013-05-20 11:58:00,77.3,38.6,29.89,South,190,7.0,9.0,25,0.00,,,0.00,Weather View 32 v70,2013-05-20 18:58:00,
2013-05-20 12:03:00,77.2,39.9,29.89,South,191,0.0,9.0,26,0.00,,,0.00,Weather View 32 v70,2013-05-20 19:03:00,
2013-05-20 12:08:00,77.1,39.1,29.89,SSE,149,3.0,9.0,26,0.00,,,0.00,Weather View 32 v70,2013-05-20 19:08:00,
2013-05-20 12:13:00,76.6,39.2,29.88,South,174,5.0,10.0,26,0.00,,,0.00,Weather View 32 v70,2013-05-20 19:13:00,
2013-05-20 12:18:00,76.4,39.2,29.88,South,179,5.0,10.0,26,0.00,,,0.00,Weather View 32 v70,2013-05-20 19:18:00,
2013-05-20 12:23:00,76.3,39.2,29.88,SSE,153,6.0,10.0,26,0.00,,,0.00,Weather View 32 v70,2013-05-20 19:23:00,
2013-05-20 12:28:00,75.7,38.8,29.88,SSW,197,4.0,10.0,27,0.00,,,0.00,Weather View 32 v70,2013-05-20 19:28:00,
2013-05-20 12:33:00,75.7,39.3,29.88,ESE,115,0.0,10.0,27,0.00,,,0.00,Weather View 32 v70,2013-05-20 19:33:00,
2013-05-20 12:38:00,76.1,38.6,29.88,SSE,155,8.0,10.0,26,0.00,,,0.00,Weather View 32 v70,2013-05-20 19:38:00,
2013-05-20 12:43:00,76.1,39.0,29.88,South,190,9.0,10.0,26,0.00,,,0.00,Weather View 32 v70,2013-05-20 19:43:00,
2013-05-20 12:48:00,76.6,37.1,29.88,WSW,245,0.0,10.0,24,0.00,,,0.00,Weather View 32 v70,2013-05-20 19:48:00,
2013-05-20 12:53:00,76.4,36.0,29.88,South,179,6.0,10.0,23,0.00,,,0.00,Weather View 32 v70,2013-05-20 19:53:00,
2013-05-20 12:58:00,76.8,36.8,29.88,SSW,200,6.0,10.0,24,0.00,,,0.00,Weather View 32 v70,2013-05-20 19:58:00,
2013-05-20 13:03:00,77.4,36.6,29.88,South,184,3.0,10.0,23,0.00,,,0.00,Weather View 32 v70,2013-05-20 20:03:00,
2013-05-20 13:08:00,78.1,35.9,29.87,SW,229,3.0,10.0,22,0.00,,,0.00,Weather View 32 v70,2013-05-20 20:08:00,
2013-05-20 13:13:00,78.4,35.5,29.87,South,188,8.0,10.0,21,0.00,,,0.00,Weather View 32 v70,2013-05-20 20:13:00,
2013-05-20 13:18:00,78.7,35.1,29.87,SSW,195,3.0,10.0,21,0.00,,,0.00,Weather View 32 v70,2013-05-20 20:18:00,
2013-05-20 13:23:00,78.9,35.1,29.86,South,187,6.0,10.0,21,0.00,,,0.00,Weather View 32 v70,2013-05-20 20:23:00,
2013-05-20 13:28:00,79.1,35.6,29.86,SW,222,0.0,10.0,21,0.00,,,0.00,Weather View 32 v70,2013-05-20 20:28:00,
2013-05-20 13:33:00,79.9,35.6,29.86,SW,214,6.0,10.0,20,0.00,,,0.00,Weather View 32 v70,2013-05-20 20:33:00,
2013-05-20 13:38:00,80.1,35.4,29.86,South,191,3.0,9.0,20,0.00,,,0.00,Weather View 32 v70,2013-05-20 20:38:00,
2013-05-20 13:43:00,81.0,34.3,29.86,SSE,160,0.0,9.0,19,0.00,,,0.00,Weather View 32 v70,2013-05-20 20:43:00,
2013-05-20 13:48:00,81.5,35.8,29.84,South,188,0.0,8.0,20,0.00,,,0.00,Weather View 32 v70,2013-05-20 20:48:00,
2013-05-20 13:53:00,81.8,34.9,29.85,SW,222,0.0,8.0,19,0.00,,,0.00,Weather View 32 v70,2013-05-20 20:53:00,
2013-05-20 13:58:00,82.5,35.3,29.84,SSE,148,4.0,8.0,19,0.00,,,0.00,Weather View 32 v70,2013-05-20 20:58:00,
2013-05-20 14:04:00,82.3,35.9,29.84,SSE,152,0.0,8.0,19,0.00,,,0.00,Weather View 32 v70,2013-05-20 21:04:00,
2013-05-20 14:09:00,82.5,35.0,29.84,SE,142,0.0,9.0,18,0.00,,,0.00,Weather View 32 v70,2013-05-20 21:09:00,
2013-05-20 14:14:00,83.0,34.2,29.84,NNE,14,0.0,9.0,17,0.00,,,0.00,Weather View 32 v70,2013-05-20 21:14:00,
2013-05-20 14:19:00,83.7,34.7,29.83,South,177,7.0,9.0,17,0.00,,,0.00,Weather View 32 v70,2013-05-20 21:19:00,
2013-05-20 14:24:00,84.0,35.7,29.83,South,190,4.0,9.0,18,0.00,,,0.00,Weather View 32 v70,2013-05-20 21:24:00,
2013-05-20 14:29:00,84.2,36.4,29.83,SSE,148,4.0,9.0,18,0.00,,,0.00,Weather View 32 v70,2013-05-20 21:29:00,
2013-05-20 14:34:00,83.7,34.9,29.83,SSW,203,4.0,9.0,18,0.00,,,0.00,Weather View 32 v70,2013-05-20 21:34:00,
2013-05-20 14:39:00,83.4,35.5,29.83,SSE,148,0.0,9.0,18,0.00,,,0.00,Weather View 32 v70,2013-05-20 21:39:00,
2013-05-20 14:44:00,83.4,34.3,29.82,SSE,156,0.0,9.0,17,0.00,,,0.00,Weather View 32 v70,2013-05-20 21:44:00,
2013-05-20 14:49:00,83.5,35.1,29.81,SSE,156,0.0,9.0,18,0.00,,,0.00,Weather View 32 v70,2013-05-20 21:49:00,
2013-05-20 14:54:00,83.4,35.1,29.81,South,169,5.0,9.0,18,0.00,,,0.00,Weather View 32 v70,2013-05-20 21:54:00,
2013-05-20 14:59:00,83.4,34.9,29.81,SW,218,2.0,9.0,18,0.00,,,0.00,Weather View 32 v70,2013-05-20 21:59:00,
2013-05-20 15:04:00,83.6,36.9,29.80,SSW,198,5.0,9.0,19,0.00,,,0.00,Weather View 32 v70,2013-05-20 22:04:00,
2013-05-20 15:09:00,83.5,40.1,29.80,South,190,3.0,9.0,22,0.00,,,0.00,Weather View 32 v70,2013-05-20 22:09:00,
2013-05-20 15:14:00,82.9,41.9,29.79,South,176,5.0,9.0,24,0.00,,,0.00,Weather View 32 v70,2013-05-20 22:14:00,
2013-05-20 15:19:00,81.5,42.3,29.79,SSW,194,6.0,9.0,25,0.00,,,0.00,Weather View 32 v70,2013-05-20 22:19:00,
2013-05-20 15:24:00,80.1,43.7,29.79,SSW,193,3.0,9.0,28,0.00,,,0.00,Weather View 32 v70,2013-05-20 22:24:00,
2013-05-20 15:29:00,79.5,45.2,29.78,South,187,6.0,9.0,30,0.00,,,0.00,Weather View 32 v70,2013-05-20 22:29:00,
2013-05-20 15:34:00,79.0,45.5,29.78,South,169,7.0,9.0,31,0.00,,,0.00,Weather View 32 v70,2013-05-20 22:34:00,
2013-05-20 15:39:00,78.4,45.9,29.78,SSW,198,0.0,9.0,32,0.00,,,0.00,Weather View 32 v70,2013-05-20 22:39:00,
2013-05-20 15:44:00,78.2,45.8,29.78,South,184,0.0,9.0,32,0.00,,,0.00,Weather View 32 v70,2013-05-20 22:44:00,
2013-05-20 15:49:00,76.9,45.7,29.78,SSW,197,4.0,9.0,33,0.00,,,0.00,Weather View 32 v70,2013-05-20 22:49:00,
2013-05-20 15:54:00,76.8,46.8,29.78,SSW,200,5.0,9.0,35,0.00,,,0.00,Weather View 32 v70,2013-05-20 22:54:00,
2013-05-20 15:59:00,76.2,46.2,29.78,South,191,7.0,9.0,35,0.00,,,0.00,Weather View 32 v70,2013-05-20 22:59:00,
2013-05-20 16:04:00,75.9,46.5,29.77,South,181,5.0,9.0,35,0.00,,,0.00,Weather View 32 v70,2013-05-20 23:04:00,
2013-05-20 16:09:00,75.7,46.7,29.77,South,190,6.0,9.0,36,0.00,,,0.00,Weather View 32 v70,2013-05-20 23:09:00,
2013-05-20 16:14:00,75.8,46.3,29.78,WSW,243,0.0,9.0,35,0.00,,,0.00,Weather View 32 v70,2013-05-20 23:14:00,
2013-05-20 16:19:00,76.2,46.2,29.78,SSW,207,3.0,9.0,35,0.00,,,0.00,Weather View 32 v70,2013-05-20 23:19:00,
2013-05-20 16:24:00,76.7,44.7,29.78,SSE,166,5.0,9.0,32,0.00,,,0.00,Weather View 32 v70,2013-05-20 23:24:00,
2013-05-20 16:29:00,77.2,45.0,29.77,South,180,0.0,9.0,32,0.00,,,0.00,Weather View 32 v70,2013-05-20 23:29:00,
2013-05-20 16:34:00,78.0,44.2,29.77,SSW,208,0.0,9.0,30,0.00,,,0.00,Weather View 32 v70,2013-05-20 23:34:00,
2013-05-20 16:39:00,77.8,45.2,29.78,SSE,160,6.0,8.0,32,0.00,,,0.00,Weather View 32 v70,2013-05-20 23:39:00,
2013-05-20 16:44:00,77.8,45.8,29.77,SSW,194,0.0,8.0,32,0.00,,,0.00,Weather View 32 v70,2013-05-20 23:44:00,
2013-05-20 16:49:00,77.9,44.8,29.77,SSW,194,0.0,8.0,31,0.00,,,0.00,Weather View 32 v70,2013-05-20 23:49:00,
2013-05-20 16:55:00,77.2,43.3,29.77,SSW,194,0.0,8.0,30,0.00,,,0.00,Weather View 32 v70,2013-05-20 23:55:00,
2013-05-20 17:00:00,76.9,43.4,29.77,SSW,194,0.0,8.0,30,0.00,,,0.00,Weather View 32 v70,2013-05-21 00:00:00,
2013-05-20 17:05:00,76.8,44.4,29.77,SSW,194,0.0,7.0,32,0.00,,,0.00,Weather View 32 v70,2013-05-21 00:05:00,
2013-05-20 17:10:00,76.6,46.2,29.77,ESE,120,0.0,7.0,34,0.00,,,0.00,Weather View 32 v70,2013-05-21 00:10:00,
2013-05-20 17:15:00,76.2,45.5,29.78,South,172,2.0,7.0,34,0.00,,,0.00,Weather View 32 v70,2013-05-21 00:15:00,
2013-05-20 17:20:00,75.7,45.6,29.78,South,173,0.0,7.0,35,0.00,,,0.00,Weather View 32 v70,2013-05-21 00:20:00,
2013-05-20 17:25:00,75.3,45.6,29.77,South,173,0.0,7.0,35,0.00,,,0.00,Weather View 32 v70,2013-05-21 00:25:00,
2013-05-20 17:30:00,75.3,43.9,29.78,South,173,0.0,7.0,33,0.00,,,0.00,Weather View 32 v70,2013-05-21 00:30:00,
2013-05-20 17:35:00,74.8,44.3,29.77,South,173,0.0,7.0,34,0.00,,,0.00,Weather View 32 v70,2013-05-21 00:35:00,
2013-05-20 17:40:00,75.2,44.0,29.77,NNE,23,0.0,7.0,33,0.00,,,0.00,Weather View 32 v70,2013-05-21 00:40:00,
2013-05-20 17:45:00,75.7,37.4,29.77,ESE,113,3.0,6.0,25,0.00,,,0.00,Weather View 32 v70,2013-05-21 00:45:00,
2013-05-20 17:50:00,75.9,40.8,29.77,East,80,0.0,7.0,29,0.00,,,0.00,Weather View 32 v70,2013-05-21 00:50:00,
2013-05-20 17:55:00,76.6,46.7,29.77,East,80,0.0,7.0,35,0.00,,,0.00,Weather View 32 v70,2013-05-21 00:55:00,
2013-05-20 18:00:00,76.1,47.2,29.78,South,180,3.0,7.0,36,0.00,,,0.00,Weather View 32 v70,2013-05-21 01:00:00,
2013-05-20 18:05:00,74.5,47.2,29.77,East,97,0.0,7.0,38,0.00,,,0.00,Weather View 32 v70,2013-05-21 01:05:00,
2013-05-20 18:10:00,73.1,47.2,29.77,ESE,105,3.0,7.0,40,0.00,,,0.00,Weather View 32 v70,2013-05-21 01:10:00,
2013-05-20 18:15:00,71.9,47.3,29.78,North,4,0.0,7.0,42,0.00,,,0.00,Weather View 32 v70,2013-05-21 01:15:00,
2013-05-20 18:20:00,70.9,46.9,29.77,ESE,115,0.0,7.0,43,0.00,,,0.00,Weather View 32 v70,2013-05-21 01:20:00,
2013-05-20 18:25:00,70.1,45.8,29.77,ESE,104,0.0,7.0,42,0.00,,,0.00,Weather View 32 v70,2013-05-21 01:25:00,
2013-05-20 18:30:00,70.1,40.6,29.78,NE,53,0.0,7.0,34,0.00,,,0.00,Weather View 32 v70,2013-05-21 01:30:00,
2013-05-20 18:35:00,70.5,39.0,29.78,ENE,60,0.0,7.0,32,0.00,,,0.00,Weather View 32 v70,2013-05-21 01:35:00,
2013-05-20 18:40:00,71.1,38.8,29.78,NNE,25,0.0,7.0,31,0.00,,,0.00,Weather View 32 v70,2013-05-21 01:40:00,
2013-05-20 18:45:00,71.3,38.4,29.78,ENE,76,0.0,7.0,30,0.00,,,0.00,Weather View 32 v70,2013-05-21 01:45:00,
2013-05-20 18:50:00,71.1,37.9,29.78,East,82,0.0,7.0,30,0.00,,,0.00,Weather View 32 v70,2013-05-21 01:50:00,
2013-05-20 18:55:00,71.4,39.2,29.78,East,82,0.0,7.0,31,0.00,,,0.00,Weather View 32 v70,2013-05-21 01:55:00,
2013-05-20 19:00:00,70.9,43.4,29.78,South,187,0.0,7.0,37,0.00,,,0.00,Weather View 32 v70,2013-05-21 02:00:00,
2013-05-20 19:05:00,69.7,45.1,29.79,South,176,0.0,7.0,41,0.00,,,0.00,Weather View 32 v70,2013-05-21 02:05:00,
2013-05-20 19:10:00,68.5,45.8,29.78,South,176,0.0,7.0,44,0.00,,,0.00,Weather View 32 v70,2013-05-21 02:10:00,
2013-05-20 19:15:00,67.3,45.9,29.79,South,176,0.0,7.0,46,0.00,,,0.00,Weather View 32 v70,2013-05-21 02:15:00,
2013-05-20 19:20:00,66.1,44.1,29.79,South,176,0.0,7.0,45,0.00,,,0.00,Weather View 32 v70,2013-05-21 02:20:00,
2013-05-20 19:25:00,65.9,44.3,29.79,South,176,0.0,7.0,46,0.00,,,0.00,Weather View 32 v70,2013-05-21 02:25:00,
2013-05-20 19:30:00,65.3,44.8,29.79,North,359,0.0,7.0,48,0.00,,,0.00,Weather View 32 v70,2013-05-21 02:30:00,
2013-05-20 19:36:00,64.9,44.8,29.79,North,359,0.0,7.0,48,0.00,,,0.00,Weather View 32 v70,2013-05-21 02:36:00,
2013-05-20 19:41:00,64.3,45.3,29.79,South,169,4.0,6.0,50,0.00,,,0.00,Weather View 32 v70,2013-05-21 02:41:00,
2013-05-20 19:46:00,63.5,46.8,29.80,SSE,155,0.0,6.0,55,0.00,,,0.00,Weather View 32 v70,2013-05-21 02:46:00,
2013-05-20 19:51:00,62.4,47.6,29.80,SSE,155,0.0,6.0,59,0.00,,,0.00,Weather View 32 v70,2013-05-21 02:51:00,
2013-05-20 19:56:00,61.5,48.2,29.80,SSE,155,0.0,6.0,62,0.00,,,0.00,Weather View 32 v70,2013-05-21 02:56:00,
2013-05-20 20:01:00,60.1,48.2,29.80,SSE,155,0.0,6.0,65,0.00,,,0.00,Weather View 32 v70,2013-05-21 03:01:00,
2013-05-20 20:06:00,59.5,48.7,29.81,SSE,155,0.0,5.0,67,0.00,,,0.00,Weather View 32 v70,2013-05-21 03:06:00,
2013-05-20 20:11:00,59.0,49.2,29.81,SSE,155,0.0,5.0,70,0.00,,,0.00,Weather View 32 v70,2013-05-21 03:11:00,
2013-05-20 20:16:00,58.1,49.1,29.81,SSE,155,0.0,5.0,72,0.00,,,0.00,Weather View 32 v70,2013-05-21 03:16:00,
2013-05-20 20:21:00,57.7,49.1,29.80,SSE,155,0.0,5.0,73,0.00,,,0.00,Weather View 32 v70,2013-05-21 03:21:00,
2013-05-20 20:26:00,57.3,49.0,29.81,SSE,155,0.0,5.0,74,0.00,,,0.00,Weather View 32 v70,2013-05-21 03:26:00,
2013-05-20 20:31:00,57.2,49.0,29.81,SSE,155,0.0,5.0,74,0.00,,,0.00,Weather View 32 v70,2013-05-21 03:31:00,
2013-05-20 20:36:00,57.0,48.9,29.82,SSE,155,0.0,5.0,74,0.00,,,0.00,Weather View 32 v70,2013-05-21 03:36:00,
2013-05-20 20:41:00,56.5,48.7,29.82,SSE,155,0.0,5.0,75,0.00,,,0.00,Weather View 32 v70,2013-05-21 03:41:00,
2013-05-20 20:46:00,56.1,48.7,29.83,SSE,155,0.0,0.0,76,0.00,,,0.00,Weather View 32 v70,2013-05-21 03:46:00,
2013-05-20 20:51:00,55.8,48.9,29.82,SSE,155,0.0,0.0,78,0.00,,,0.00,Weather View 32 v70,2013-05-21 03:51:00,
2013-05-20 20:56:00,55.4,48.6,29.83,SSE,155,0.0,0.0,78,0.00,,,0.00,Weather View 32 v70,2013-05-21 03:56:00,
2013-05-20 21:01:00,55.2,48.8,29.83,SSE,155,0.0,0.0,79,0.00,,,0.00,Weather View 32 v70,2013-05-21 04:01:00,
2013-05-20 21:02:00,55.1,48.7,29.83,SSE,155,0.0,0.0,79,0.00,,,0.00,Weather View 32 v70,2013-05-21 04:02:00,
2013-05-20 21:07:00,54.8,48.8,29.83,SSE,155,0.0,0.0,80,0.00,,,0.00,Weather View 32 v70,2013-05-21 04:07:00,
2013-05-20 21:12:00,54.6,48.7,29.83,SSE,155,0.0,0.0,81,0.00,,,0.00,Weather View 32 v70,2013-05-21 04:12:00,
2013-05-20 21:17:00,54.5,48.9,29.84,SSE,155,0.0,0.0,81,0.00,,,0.00,Weather View 32 v70,2013-05-21 04:17:00,
2013-05-20 21:22:00,54.3,48.8,29.84,SSE,155,0.0,0.0,82,0.00,,,0.00,Weather View 32 v70,2013-05-21 04:22:00,
2013-05-20 21:27:00,54.2,48.8,29.85,SSE,155,0.0,0.0,82,0.00,,,0.00,Weather View 32 v70,2013-05-21 04:27:00,
2013-05-20 21:32:00,53.6,48.5,29.85,SSE,155,0.0,0.0,83,0.00,,,0.00,Weather View 32 v70,2013-05-21 04:32:00,
2013-05-20 21:37:00,53.5,48.5,29.85,SSE,155,0.0,0.0,83,0.00,,,0.00,Weather View 32 v70,2013-05-21 04:37:00,
2013-05-20 21:42:00,53.3,48.5,29.85,SSE,155,0.0,0.0,84,0.00,,,0.00,Weather View 32 v70,2013-05-21 04:42:00,
2013-05-20 21:47:00,53.5,48.9,29.85,SSE,155,0.0,0.0,84,0.00,,,0.00,Weather View 32 v70,2013-05-21 04:47:00,
2013-05-20 21:52:00,53.0,48.4,29.86,SSE,155,0.0,0.0,85,0.00,,,0.00,Weather View 32 v70,2013-05-21 04:52:00,
2013-05-20 21:57:00,53.0,48.4,29.86,SSE,155,0.0,0.0,84,0.00,,,0.00,Weather View 32 v70,2013-05-21 04:57:00,
2013-05-20 22:02:00,52.9,48.5,29.87,SSE,155,0.0,0.0,85,0.00,,,0.00,Weather View 32 v70,2013-05-21 05:02:00,
2013-05-20 22:07:00,53.0,48.6,29.87,SSE,155,0.0,0.0,85,0.00,,,0.00,Weather View 32 v70,2013-05-21 05:07:00,
2013-05-20 22:12:00,53.3,48.9,29.86,SSE,155,0.0,0.0,85,0.00,,,0.00,Weather View 32 v70,2013-05-21 05:12:00,
2013-05-20 22:17:00,53.5,48.9,29.87,SSE,155,0.0,0.0,84,0.00,,,0.00,Weather View 32 v70,2013-05-21 05:17:00,
2013-05-20 22:22:00,53.6,48.8,29.87,SSE,155,0.0,0.0,84,0.00,,,0.00,Weather View 32 v70,2013-05-21 05:22:00,
2013-05-20 22:27:00,52.9,48.0,29.88,SSE,155,0.0,0.0,83,0.00,,,0.00,Weather View 32 v70,2013-05-21 05:27:00,
2013-05-20 22:32:00,52.6,47.8,29.88,SSE,155,0.0,0.0,84,0.00,,,0.00,Weather View 32 v70,2013-05-21 05:32:00,
2013-05-20 22:37:00,52.2,47.6,29.88,SSE,155,0.0,0.0,84,0.00,,,0.00,Weather View 32 v70,2013-05-21 05:37:00,
2013-05-20 22:42:00,52.0,47.6,29.88,SSE,155,0.0,0.0,85,0.00,,,0.00,Weather View 32 v70,2013-05-21 05:42:00,
2013-05-20 22:47:00,51.9,47.7,29.88,SSE,155,0.0,0.0,86,0.00,,,0.00,Weather View 32 v70,2013-05-21 05:47:00,
2013-05-20 22:52:00,51.7,47.7,29.88,SSE,155,0.0,0.0,86,0.00,,,0.00,Weather View 32 v70,2013-05-21 05:52:00,
2013-05-20 22:57:00,51.2,47.2,29.87,SSE,155,0.0,0.0,86,0.00,,,0.00,Weather View 32 v70,2013-05-21 05:57:00,
2013-05-20 23:02:00,51.0,47.2,29.88,SSE,155,0.0,0.0,87,0.00,,,0.00,Weather View 32 v70,2013-05-21 06:02:00,
2013-05-20 23:07:00,50.6,46.9,29.88,SSE,155,0.0,0.0,87,0.00,,,0.00,Weather View 32 v70,2013-05-21 06:07:00,
2013-05-20 23:12:00,50.6,47.0,29.87,SSE,155,0.0,0.0,88,0.00,,,0.00,Weather View 32 v70,2013-05-21 06:12:00,
2013-05-20 23:17:00,50.1,46.9,29.88,SSE,155,0.0,0.0,89,0.00,,,0.00,Weather View 32 v70,2013-05-21 06:17:00,
2013-05-20 23:22:00,50.0,46.9,29.88,SSE,155,0.0,0.0,89,0.00,,,0.00,Weather View 32 v70,2013-05-21 06:22:00,
2013-05-20 23:27:00,49.6,46.6,29.88,SSE,155,0.0,0.0,89,0.00,,,0.00,Weather View 32 v70,2013-05-21 06:27:00,
2013-05-20 23:32:00,49.5,46.6,29.88,SSE,155,0.0,0.0,90,0.00,,,0.00,Weather View 32 v70,2013-05-21 06:32:00,
2013-05-20 23:37:00,49.4,46.7,29.89,SSE,155,0.0,0.0,90,0.00,,,0.00,Weather View 32 v70,2013-05-21 06:37:00,
2013-05-20 23:42:00,49.2,46.5,29.89,SSE,155,0.0,0.0,90,0.00,,,0.00,Weather View 32 v70,2013-05-21 06:42:00,
2013-05-20 23:48:00,49.4,46.8,29.88,SSE,155,0.0,0.0,91,0.00,,,0.00,Weather View 32 v70,2013-05-21 06:48:00,
2013-05-20 23:53:00,49.4,46.8,29.88,SSE,155,0.0,0.0,91,0.00,,,0.00,Weather View 32 v70,2013-05-21 06:53:00,
2013-05-20 23:58:00,48.9,46.4,29.89,SSE,155,0.0,0.0,91,0.00,,,0.00,Weather View 32 v70,2013-05-21 06:58:00,